Location: Hawks Ness
(60.2333°N, 1.1667°W)
Time: 11:37:14
(UTC+00:00)

Cosmos 1726 - Pass Details

Date: 26 January 2020
Orbit: 483 x 500 km, 82.5° (Epoch: 23 February)

Event Time Altitude Azimuth Distance (km) Brightness Sun altitude
Exits shadow 04:26:32 22° 85° (E) 1,098 4.5 -29.9°
Drops below altitude 10° 04:29:19 10° 36° (NE) 1,682 5.4 -29.6°
Sets 04:31:44 0° 21° (NNE) 2,567 6.2 -29.3°
